Regional Weather Roundup
Issued by NWS

Home | Current Version | Previous Version | Graphics & Text | Print | Product List | Glossary On
Versions: 1 2 3 4 5 6 7 8 9 10 11 12 13 14 15 16 17 18 19 20 21 22 23 24 25 26 27 28 29 30 31 32 33 34 35 36 37 38 39 40 41 42 43 44 45 46 47 48 49 50
000
ASUS44 KMEG 271500
RWRTN
TENNESSEE HOURLY STATE WEATHER ROUNDUP
NATIONAL WEATHER SERVICE MEMPHIS TN
900 AM CST SAT DEC 27 2014

TNZ002-004-019-021-049-052-054-088>092-271600-
WEST TENNESSEE

CITY           SKY/WX    TMP DP  RH WIND       PRES   REMARKS
MEMPHIS INTL   CLOUDY    56  50  80 S14       30.13F
NWS MEMPHIS      N/A     54 N/A N/A MISG        N/A
JACKSON        CLOUDY    52  45  77 S7G16     30.17S
DYERSBURG      CLOUDY    48  37  66 E5        30.17F
UNION CITY     CLOUDY    46  46 100 SE7       30.17S
PARIS          CLOUDY    46  45  93 CALM      30.19S
LEXINGTON      CLOUDY    52  43  71 S10       30.20S
SAVANNAH       CLOUDY    48  45  87 S7        30.23S
$$

TNZ008-025-027-028-033-062-065-066-271600-
NORTH MIDDLE TENNESSEE

CITY           SKY/WX    TMP DP  RH WIND       PRES   REMARKS
NASHVILLE      CLOUDY    53  40  61 S5        30.25R
CLARKSVILLE    CLOUDY    47  45  93 SE6       30.22R
COOKEVILLE     PTSUNNY   54  37  54 S8        30.26R
CROSSVILLE     CLOUDY    51  33  50 S7        30.28R
$$

TNZ061-075-076-078-094-096-097-271600-
SOUTH MIDDLE TENNESSEE

CITY           SKY/WX    TMP DP  RH WIND       PRES   REMARKS
FAYETTEVILLE   CLOUDY    48  37  66 MISG      30.27S
TULLAHOMA      CLOUDY    50  36  57 SE7       30.27R
WINCHESTER     CLOUDY    52  36  54 SE9       30.29R
SHELBYVILLE    CLOUDY    52  39  62 S10       30.27S
$$

TNZ017-018-042-046-047-271600-
NORTHEAST TENNESSEE

CITY           SKY/WX    TMP DP  RH WIND       PRES   REMARKS
TRI CITIES     MOSUNNY   46  32  58 CALM      30.32R
ELIZABETHTON   SUNNY     45  30  57 CALM      30.30R
$$

TNZ012-013-036-069-073-074-271600-
CENTRAL EAST TENNESSEE

CITY           SKY/WX    TMP DP  RH WIND       PRES   REMARKS
KNOXVILLE      CLOUDY    43  38  82 CALM      30.34R
OAK RIDGE      CLOUDY    44  38  79 CALM      30.34R
GATLINBURG     PTSUNNY   43  36  75 CALM      30.32S
$$

TNZ083-085-099-271600-
SOUTHEAST TENNESSEE

CITY           SKY/WX    TMP DP  RH WIND       PRES   REMARKS
CHATTANOOGA    CLOUDY    45  40  82 CALM      30.34R
$$

SKY/WX REPORTED AS FAIR MEANS FEW OR NO CLOUDS BELOW
12 THOUSAND FEET.



USA.gov is the U.S. government's official web portal to all federal, state and local government web resources and services.